Vorticity
nan nan nan nan nan nan nan nan nan nan nan nan nan nan nan nan nan nan nan nan nan nan nan nan nan nan nan nan nan nan nan nan nan nan nan nan nan nan nan nan nan nan nan nan nan nan nan nan nan nan nan nan nan nan nan nan nan nan nan nan nan nan nan nan nan nan nan nan nan
nan 8 7 8 10 11 12 13 11 9 8 8 8 9 7 7 9 10 11 8 6 6 5 9 12 11 10 8 7 8 9 10 9 8 9 10 11 10 9 9 9 9 8 7 5 5 8 7 6 7 8 9 10 10 9 9 9 9 9 6 5 8 10 10 10 9 9 7 nan
nan 7 8 10 11 12 12 13 14 13 9 6 8 9 8 7 9 11 12 10 7 5 5 10 14 11 9 5 5 8 9 10 8 7 7 9 11 10 10 10 10 8 6 6 6 6 8 7 6 7 8 10 10 9 9 9 9 9 11 7 5 7 9 10 10 10 9 10 nan
nan 8 9 11 13 11 10 14 17 13 7 7 10 8 7 7 9 11 13 11 6 4 6 11 12 10 8 6 6 8 10 10 8 6 5 8 10 10 11 10 9 8 7 7 7 7 7 6 5 7 10 11 9 7 8 9 9 8 9 9 7 9 8 9 10 9 9 10 nan
nan 8 8 10 11 9 10 13 14 11 9 10 10 9 9 9 10 11 11 8 6 8 12 12 9 10 9 8 7 8 9 8 6 5 6 8 9 9 10 10 8 8 8 8 8 7 6 4 4 7 9 9 7 8 9 10 8 6 7 8 9 9 9 8 9 9 9 9 nan
nan 10 8 8 9 8 10 12 11 9 12 15 14 11 8 8 11 12 11 9 11 13 13 10 8 10 10 8 6 6 7 6 6 8 9 7 6 8 9 9 8 7 8 8 8 7 5 2 3 7 8 9 9 9 11 9 7 6 6 7 8 8 9 7 7 9 9 9 nan
nan 12 9 7 6 8 11 11 8 9 12 16 16 12 8 7 10 12 10 9 10 11 10 9 11 12 12 8 5 5 6 7 9 9 7 6 8 9 7 7 7 6 8 8 7 6 5 2 3 7 8 7 10 12 10 7 6 7 6 5 7 9 10 8 6 9 11 10 nan
nan 11 9 6 5 7 9 8 7 8 10 14 16 14 10 7 7 7 7 8 10 10 9 12 16 14 12 9 6 5 6 7 7 7 7 8 9 9 7 6 6 6 7 6 6 5 4 2 4 7 7 7 9 12 12 9 5 5 5 4 4 7 9 9 8 8 11 12 nan
nan 10 9 6 5 7 8 7 7 9 11 14 15 13 9 5 5 5 6 8 11 11 10 14 17 14 12 10 6 4 5 5 5 5 6 9 9 7 5 6 6 5 5 6 7 7 2 1 5 6 7 7 9 11 12 11 7 3 2 4 5 6 7 8 8 8 9 10 nan
nan 9 7 6 8 8 8 7 7 9 12 13 13 10 4 2 6 7 7 10 12 12 11 15 16 13 11 9 6 5 4 5 5 5 6 7 7 6 4 6 7 4 4 5 7 7 2 2 5 6 5 8 10 9 9 9 8 4 -1 3 8 7 4 5 7 8 7 8 nan
nan 7 5 7 9 8 8 7 7 9 12 14 13 8 0 1 9 11 12 13 13 13 12 14 14 11 8 7 7 6 5 4 6 7 6 6 6 6 4 5 6 5 4 3 4 6 4 5 8 6 2 4 9 10 9 8 8 6 0 1 7 7 4 3 6 6 7 9 nan
nan 7 7 8 8 8 7 6 7 11 14 15 12 6 -0 4 12 13 13 12 11 12 12 13 12 8 5 7 9 7 7 7 7 6 7 7 6 5 5 5 6 5 5 3 1 3 6 7 8 7 4 1 4 9 12 10 8 7 5 3 5 6 7 5 4 4 7 10 nan
nan 8 8 9 8 7 6 6 8 12 15 14 9 4 1 7 13 12 11 10 9 10 11 12 10 6 5 8 9 8 9 9 7 6 7 7 6 6 5 5 5 5 4 4 2 3 6 9 9 7 5 1 0 5 11 11 8 8 7 6 5 5 7 7 5 5 7 9 nan
nan 9 9 9 6 5 6 6 7 12 15 12 6 4 3 7 11 10 10 10 9 9 10 9 6 7 9 11 9 9 9 9 9 7 6 6 7 6 5 5 5 4 2 4 6 6 5 6 8 7 7 4 1 3 6 9 8 8 8 8 7 7 7 9 8 7 7 8 nan
nan 9 9 8 5 4 6 5 6 13 15 10 6 4 4 7 10 10 11 11 8 7 8 8 7 10 12 11 10 9 8 9 9 8 7 7 7 6 5 5 6 3 2 3 6 8 7 6 7 7 7 6 5 4 4 6 7 7 8 9 9 9 8 9 8 8 8 8 nan
nan 9 9 7 4 4 5 3 6 13 13 10 7 4 2 5 9 10 11 9 6 7 10 10 8 9 9 10 10 9 8 8 9 8 7 7 8 7 6 6 6 6 5 3 4 6 6 7 8 9 8 7 7 6 6 6 7 8 8 8 9 9 9 9 9 8 8 8 nan
nan 10 8 7 6 5 5 3 6 12 14 12 7 2 0 3 7 8 10 8 7 10 12 9 6 7 7 7 9 9 8 8 8 8 8 8 9 9 8 7 8 8 7 6 4 5 4 4 5 9 10 9 9 9 8 7 8 10 10 10 9 10 10 10 10 10 10 10 nan
nan 10 9 8 9 8 8 6 7 11 13 10 5 2 1 2 5 5 7 9 11 12 10 6 5 6 6 4 3 5 8 9 7 7 7 9 10 9 9 9 8 9 9 8 7 6 6 4 4 6 8 10 10 10 10 9 10 12 12 12 11 11 10 10 10 10 11 12 nan
nan 10 10 9 10 10 10 9 9 10 10 8 6 6 5 3 2 2 5 8 10 10 8 4 4 5 7 5 1 2 6 10 8 6 6 8 9 9 9 9 8 9 9 9 9 8 8 7 6 6 7 8 9 9 9 10 11 13 14 14 13 13 12 12 11 11 11 12 nan
nan 10 10 10 10 10 11 10 9 9 7 9 10 9 7 3 0 1 4 6 7 8 6 4 3 5 7 7 4 2 2 8 11 8 6 7 8 8 9 9 9 9 9 9 10 10 9 8 8 8 8 9 9 9 9 9 10 11 12 14 15 14 14 13 13 12 11 12 nan
nan 9 9 9 10 10 10 9 9 9 8 9 10 8 6 3 2 3 3 4 5 6 6 4 4 5 7 8 7 4 2 6 11 10 8 8 9 9 9 10 9 9 9 9 10 11 10 10 9 9 10 11 11 11 10 10 10 10 10 11 13 14 14 13 13 13 12 12 nan
nan 10 10 9 9 9 9 9 9 9 9 9 9 8 6 4 3 3 3 5 6 6 5 6 7 8 8 8 8 6 3 5 10 10 9 9 10 10 9 11 11 10 9 10 10 11 11 11 11 11 11 12 13 13 13 12 12 11 10 9 9 10 11 12 12 12 12 11 nan
nan 10 10 10 9 8 8 8 9 10 9 9 8 7 5 4 3 3 3 5 7 7 5 6 10 12 11 9 9 7 5 5 8 8 8 8 10 10 8 10 12 12 11 13 16 16 15 15 15 14 13 14 16 16 16 15 14 13 12 10 8 8 9 11 11 11 11 10 nan
nan 8 6 11 14 8 6 7 8 9 9 9 8 6 5 4 4 4 5 6 7 7 4 4 9 12 13 12 10 8 7 6 7 7 8 7 8 10 9 9 12 13 13 15 21 24 24 23 22 19 18 18 20 20 20 17 16 15 14 12 10 9 9 10 11 11 11 10 nan
nan 8 6 11 13 7 5 6 8 9 9 8 8 7 7 6 5 6 8 8 8 8 6 5 6 7 10 12 12 10 10 9 9 9 9 8 7 8 9 9 11 12 14 19 25 27 27 26 26 25 22 19 19 18 17 16 16 15 14 13 12 11 11 10 9 10 10 10 nan
nan 9 8 9 9 6 5 5 6 7 8 8 8 9 9 8 8 9 9 8 8 8 8 6 5 6 8 11 11 9 9 11 13 13 11 10 9 7 6 7 9 11 14 21 22 20 19 21 23 23 20 17 14 12 12 12 14 14 14 13 12 12 11 10 9 8 9 9 nan
nan 8 7 8 9 7 6 5 6 7 7 8 9 9 10 9 10 12 10 9 8 8 7 7 7 7 9 13 13 9 5 7 12 15 14 13 12 10 8 7 9 12 17 20 16 13 12 14 16 16 15 14 11 10 9 10 11 11 12 12 12 12 12 11 10 9 8 8 nan
nan 8 8 8 9 8 7 6 6 7 7 7 8 8 10 12 12 12 10 9 7 7 7 8 8 8 10 16 18 13 8 5 8 12 15 15 15 15 13 11 13 17 24 18 11 8 9 10 11 12 12 12 9 8 8 9 8 8 8 9 10 11 12 12 12 11 9 7 nan
nan 8 9 9 8 8 8 8 8 7 7 6 6 6 8 12 14 13 11 8 6 4 4 8 10 11 13 16 17 16 14 9 8 10 13 15 16 17 18 15 13 11 15 14 11 7 6 7 9 10 10 10 9 9 9 8 7 7 8 8 9 11 12 12 12 12 10 8 nan
nan 8 10 10 8 8 9 9 8 7 6 6 7 5 6 9 12 14 14 10 5 4 5 9 12 14 14 14 13 14 15 14 12 12 13 14 15 16 16 14 6 -1 -4 11 23 21 15 8 6 7 8 9 10 10 10 11 12 11 11 11 12 13 13 12 12 14 16 17 nan
nan 9 10 10 9 9 9 9 8 7 5 6 8 6 5 7 9 11 12 10 7 8 12 14 14 13 12 12 12 13 13 14 14 14 13 12 11 12 10 9 6 1 -4 8 24 28 28 20 12 8 6 6 9 11 13 14 14 15 14 13 14 16 17 13 11 15 21 27 nan
nan 9 9 10 10 9 9 9 9 9 8 7 7 7 6 5 6 8 10 11 11 12 13 15 15 12 10 10 12 13 13 13 12 11 11 9 10 7 6 2 3 1 1 10 20 21 23 23 18 13 11 11 14 16 17 16 13 11 10 11 12 16 20 19 14 13 18 24 nan
nan 8 9 11 12 10 10 10 10 10 9 9 9 9 8 5 5 8 9 9 11 13 13 15 16 12 11 11 12 15 16 16 16 15 15 11 8 6 5 0 -3 -2 4 14 20 19 17 16 14 13 15 18 19 18 18 17 13 10 8 8 9 11 14 18 17 15 14 17 nan
nan 7 8 11 12 11 11 11 12 11 11 11 12 11 9 8 8 8 8 9 10 12 14 16 18 18 17 13 14 18 21 24 26 28 31 29 19 11 7 6 0 -1 7 20 23 20 16 13 12 11 12 14 15 13 13 15 14 13 12 11 10 10 11 12 14 14 13 13 nan
nan 7 8 9 10 10 11 12 13 13 12 12 13 12 10 11 10 8 8 9 10 11 13 17 20 23 25 21 17 17 17 19 23 25 27 26 18 11 8 8 4 1 10 24 28 23 16 12 11 11 10 10 9 7 6 7 9 11 12 10 9 10 12 12 11 11 11 11 nan
nan 8 8 8 9 10 11 13 13 13 13 12 12 12 12 11 11 10 9 9 12 13 14 17 20 20 21 19 15 12 10 10 10 11 11 10 9 7 6 6 4 4 12 26 32 27 19 11 9 9 9 10 9 7 5 3 4 4 6 7 6 6 7 8 9 11 12 13 nan
nan 9 9 9 9 9 10 12 14 14 14 13 11 12 13 11 9 9 9 9 14 14 14 13 13 11 10 10 10 11 12 12 11 11 12 14 12 10 8 7 6 8 12 25 35 31 23 14 10 9 9 10 11 9 6 5 4 3 1 2 3 4 5 3 3 6 10 16 nan
nan 10 11 10 9 9 9 11 14 15 15 12 12 13 13 11 10 10 11 14 15 12 8 7 7 8 8 10 10 10 13 14 13 13 12 13 13 13 11 9 8 11 13 24 35 34 29 22 18 16 15 12 10 8 6 7 8 6 3 1 2 3 6 5 2 1 3 9 nan
nan 11 11 10 9 9 8 10 12 13 14 13 14 15 14 14 15 16 19 22 18 12 8 8 9 10 9 9 8 7 8 10 12 12 11 11 12 13 13 9 8 10 11 20 32 34 33 29 25 22 18 12 9 8 8 8 9 8 7 4 3 2 4 7 6 2 -3 -4 nan
nan 11 11 10 9 9 8 8 10 11 13 14 14 12 12 16 19 20 21 20 15 11 8 8 10 10 9 6 5 5 6 8 9 10 11 10 9 10 13 10 8 7 7 13 24 29 30 29 26 23 19 13 10 9 9 9 8 8 8 7 5 3 3 6 6 4 -1 -8 nan
nan nan nan nan nan nan nan nan nan nan nan nan nan nan nan nan nan nan nan nan nan nan nan nan nan nan nan nan nan nan nan nan nan nan nan nan nan nan nan nan nan nan nan nan nan nan nan nan nan nan nan nan nan nan nan nan nan nan nan nan nan nan nan nan nan nan nan nan nan
CAPE
nan nan nan nan nan nan 12 11 nan nan nan nan nan nan nan 3 3 nan nan nan nan nan nan nan nan nan nan nan nan nan nan nan nan nan nan nan nan nan nan nan nan nan nan nan nan nan nan nan nan nan nan nan nan nan nan nan nan nan nan nan nan nan nan nan nan nan nan nan nan
nan nan nan nan nan nan 16 nan nan nan nan nan nan nan nan nan nan nan nan nan nan nan nan nan nan nan nan nan nan nan nan nan nan nan nan nan nan nan nan nan nan nan nan nan nan nan nan nan nan nan nan nan nan nan nan nan nan nan nan nan nan nan nan nan nan nan nan nan nan
nan nan nan nan 10 10 1 nan nan nan nan nan nan nan nan nan nan nan nan nan nan nan nan nan nan nan nan nan nan nan nan nan nan nan nan nan nan nan nan nan nan nan nan nan nan nan nan nan nan nan nan nan nan nan nan nan nan nan nan nan nan nan nan nan nan nan nan nan nan
0 5 5 8 1 1 nan nan nan nan nan nan nan nan nan nan nan nan nan nan nan nan nan nan nan nan nan nan nan nan nan nan nan nan nan nan nan nan nan nan nan nan nan nan nan nan nan nan nan nan nan nan nan nan nan nan nan nan nan nan nan nan nan nan nan nan nan nan nan
4 2 2 1 nan nan nan nan nan nan nan nan nan nan nan nan nan nan nan nan nan nan nan nan nan nan nan nan nan nan nan nan nan nan nan nan nan nan nan nan nan nan nan nan nan nan nan nan nan nan nan nan nan nan nan nan nan nan nan nan nan nan nan nan nan nan nan nan nan
4 1 1 1 nan nan nan nan nan nan nan nan nan nan nan nan nan nan nan nan nan nan nan nan nan nan nan nan nan nan nan nan nan nan nan nan nan nan nan nan nan nan nan nan nan nan nan nan nan nan nan nan nan nan nan nan nan nan nan nan nan nan nan nan nan nan nan nan nan
5 2 2 1 nan nan nan nan nan nan nan nan nan nan nan nan nan nan nan nan nan nan nan nan nan nan nan nan nan nan nan nan nan nan nan nan nan nan nan nan nan nan nan nan nan nan nan nan nan nan nan nan nan nan nan nan nan nan nan nan nan nan nan nan nan nan nan nan nan
7 2 2 1 nan nan nan nan nan nan nan nan nan nan nan nan nan nan nan nan nan nan nan nan nan nan nan nan nan nan nan nan nan nan nan nan nan nan nan nan nan nan nan nan nan nan nan nan nan nan nan nan nan nan nan nan nan nan nan nan nan nan nan nan nan nan nan nan nan
9 2 2 0 nan nan nan nan nan nan nan nan nan nan nan nan nan nan nan nan nan nan nan nan nan nan nan nan nan nan nan nan nan nan nan nan nan nan nan nan nan nan nan nan nan nan nan nan nan nan nan nan nan nan nan nan nan nan nan nan nan nan nan nan nan nan nan nan nan
11 5 5 2 nan nan nan nan nan nan nan nan nan nan nan nan nan nan nan nan nan nan nan nan nan nan nan nan nan nan nan nan nan nan nan nan nan nan nan nan nan nan nan nan nan nan nan nan nan nan nan nan nan nan nan nan nan nan nan nan nan nan nan nan nan nan nan nan nan
12 6 6 3 nan nan nan nan nan nan nan nan nan nan nan nan nan nan nan nan nan nan nan nan nan nan nan nan nan nan nan nan nan nan nan nan nan nan nan nan nan nan nan nan nan nan nan nan nan nan nan nan nan nan nan nan nan nan nan nan nan nan nan nan nan nan nan nan nan
13 6 6 4 nan nan nan nan nan nan nan nan nan 2 2 nan 0 nan nan nan 0 0 0 nan nan nan nan nan nan nan nan nan nan nan nan nan nan nan nan nan nan nan nan nan nan nan nan nan nan nan nan nan nan nan nan nan nan nan nan nan nan nan nan nan nan nan nan nan nan
13 12 12 6 0 0 nan nan nan nan nan nan nan 6 6 1 nan nan nan 0 1 1 1 0 nan nan nan nan nan nan nan nan nan nan nan nan nan nan nan nan nan nan nan nan nan nan nan nan nan nan nan nan nan nan nan nan nan nan nan nan nan nan nan nan nan nan nan nan nan
16 13 13 11 4 4 nan nan nan nan nan nan nan 6 6 1 nan nan nan 4 5 7 7 3 nan nan nan nan nan nan nan nan nan nan nan nan nan nan nan nan nan nan nan nan nan nan nan nan nan nan nan nan nan nan nan nan nan nan nan nan nan nan nan nan nan nan nan nan nan
18 13 13 10 3 3 nan nan nan nan nan nan 3 6 6 0 nan nan nan 10 12 13 13 7 nan nan nan nan nan nan nan nan nan nan nan nan nan nan nan nan nan nan nan nan nan nan nan nan nan nan nan nan nan nan nan nan nan nan nan nan nan nan nan nan nan nan nan nan nan
19 12 12 8 3 3 nan nan nan nan nan nan 6 3 3 nan nan nan nan 13 19 18 18 6 nan nan nan nan nan nan nan nan nan nan nan nan nan nan nan nan nan nan nan nan nan nan nan nan nan nan nan nan nan nan nan nan nan nan nan nan nan nan nan nan nan nan nan nan nan
19 12 12 7 2 2 nan nan nan nan nan 1 6 4 4 0 0 nan nan 15 28 17 17 nan nan nan nan nan nan nan nan nan nan nan nan nan nan nan nan nan nan nan nan nan nan nan nan nan nan nan nan nan nan nan nan nan nan nan nan nan nan nan nan nan nan nan nan nan nan
20 16 16 13 8 8 1 nan 1 1 2 1 1 0 0 0 6 16 16 7 3 nan nan nan nan nan nan nan nan nan nan nan nan nan nan nan nan nan nan nan nan nan nan nan nan nan nan nan nan nan nan nan nan nan nan nan nan nan nan nan nan nan nan nan nan nan nan nan nan
13 9 9 5 5 5 nan nan 0 0 3 1 nan nan nan nan 6 14 14 1 nan nan nan nan nan nan nan nan nan nan nan nan nan nan nan nan nan nan nan nan nan nan nan nan nan nan nan nan nan nan nan nan nan nan nan nan nan nan nan nan nan nan nan nan nan nan nan nan nan
4 4 4 2 1 1 0 nan 0 0 0 nan nan nan nan nan nan nan nan nan nan nan nan nan nan nan nan nan nan nan nan nan nan nan nan nan nan nan nan nan nan nan nan nan nan nan nan nan nan nan nan nan nan nan nan nan nan nan nan nan nan nan nan nan nan nan nan nan nan
8 4 4 3 1 1 0 0 nan nan nan nan nan nan nan nan nan nan nan nan nan nan nan nan nan nan nan nan nan nan nan nan nan nan nan nan nan nan nan nan nan nan nan nan nan nan nan nan nan nan nan nan nan nan nan nan nan nan nan nan nan nan nan nan nan nan nan nan nan
4 1 1 1 nan nan nan nan nan nan nan nan nan nan nan nan nan nan nan nan nan nan nan nan nan nan nan nan nan nan nan nan nan nan nan nan nan nan nan nan nan nan nan nan nan nan nan nan nan nan nan nan nan nan nan nan nan nan nan nan nan nan nan nan nan nan nan nan nan
6 0 0 nan nan nan nan nan 0 0 nan nan nan nan nan nan nan nan nan nan nan nan nan nan nan nan nan nan nan nan nan nan nan nan nan nan nan nan nan nan nan nan nan nan nan nan nan nan nan nan nan nan nan nan nan nan nan nan nan nan nan nan nan nan nan nan nan nan nan
4 nan nan nan nan nan nan 0 nan nan nan nan nan nan nan nan nan nan nan nan nan nan nan nan nan nan nan nan nan nan nan nan nan nan nan nan nan nan nan nan nan nan nan nan nan nan nan nan nan nan nan nan 2 5 5 nan nan nan nan nan nan nan nan nan nan nan nan nan nan
4 nan nan 1 0 0 nan nan nan nan nan nan nan nan nan nan nan nan nan nan nan nan nan nan nan nan nan nan nan nan nan nan nan nan nan nan nan nan nan nan nan nan nan nan nan nan nan nan nan nan 2 29 22 15 15 nan nan nan nan nan nan nan nan nan nan nan nan nan nan
7 2 2 1 0 0 nan nan nan nan nan nan nan nan nan nan nan nan nan nan nan nan nan nan nan nan nan nan nan nan nan nan nan nan nan nan nan nan nan nan nan nan nan nan nan nan nan nan nan nan nan 207 28 5 5 0 nan nan nan nan nan nan nan nan nan nan nan nan nan
10 4 4 2 0 0 nan 0 3 3 4 2 1 nan nan nan nan nan nan 2 6 5 5 4 0 nan nan nan nan nan nan nan nan nan nan nan nan nan nan nan nan nan nan nan nan nan nan nan nan nan nan 31 30 5 5 0 nan nan nan nan nan nan nan nan nan nan nan nan nan
7 2 2 4 4 4 4 13 15 15 16 16 21 20 20 19 16 19 19 26 29 21 21 16 2 nan nan 0 nan nan nan nan nan nan nan nan nan nan nan 1 3 nan nan nan nan nan nan nan nan nan nan nan 52 1 1 nan nan nan nan nan nan nan nan nan nan nan nan nan nan
10 10 10 11 19 19 20 28 30 30 32 43 51 74 74 72 59 49 49 51 46 50 50 42 8 18 18 8 nan nan nan nan 2 10 10 7 17 85 85 42 7 nan nan nan nan nan nan nan nan nan nan nan nan nan nan nan nan nan nan nan nan nan nan nan nan nan nan nan nan
26 32 32 34 36 36 41 51 51 51 60 70 86 114 114 144 102 79 79 67 71 68 68 79 68 64 64 49 45 45 36 35 30 36 36 103 248 360 360 34 nan nan nan nan nan nan nan nan nan nan nan nan nan nan nan nan nan nan nan nan nan nan nan nan nan nan nan nan nan
57 57 57 59 61 61 68 75 76 76 88 93 110 137 137 144 139 104 104 89 73 12 12 89 156 131 131 147 138 138 117 134 140 243 243 441 68 160 160 3 nan nan nan nan nan nan nan nan nan nan nan nan nan nan nan nan nan nan nan nan nan nan nan 0 1 1 1 1 nan
80 89 89 78 78 78 86 94 94 94 99 104 109 128 128 159 179 185 185 113 88 72 72 191 222 241 241 260 229 229 173 215 247 405 405 440 426 19 19 nan nan nan nan nan nan nan nan nan nan nan nan nan nan nan nan nan nan 0 0 0 0 0 0 0 1 1 0 1 3
131 123 123 102 98 98 95 104 113 113 98 106 125 145 145 192 230 287 287 244 186 304 304 347 363 295 295 251 236 236 233 307 283 65 65 164 171 nan nan nan nan nan nan nan nan nan nan nan nan nan nan nan nan nan nan nan nan 1 1 nan nan nan nan 0 1 1 1 0 0
158 184 184 160 109 109 120 144 153 153 176 184 206 213 213 253 333 429 429 309 393 490 490 450 382 349 349 340 697 697 288 63 168 224 224 118 nan nan nan nan nan nan nan nan nan nan nan nan nan nan nan nan nan nan nan nan nan 0 0 0 0 0 0 1 1 1 1 1 0
168 215 215 228 188 188 199 244 270 270 296 413 372 426 426 457 584 591 591 254 252 583 583 788 750 309 309 171 1 1 nan nan 1 nan nan nan nan nan nan nan nan nan nan nan nan nan nan nan nan nan nan nan nan nan nan nan nan nan nan 0 0 0 0 0 1 1 1 2 2
198 252 252 288 301 301 383 514 494 494 450 602 608 640 640 548 679 513 513 59 140 745 745 134 nan nan nan nan 0 0 nan 1 nan nan nan nan nan nan nan nan nan nan nan nan nan nan nan nan nan nan nan nan nan nan nan nan nan 1 1 0 1 1 1 1 1 1 2 1 1
241 298 298 358 418 418 530 641 616 616 725 840 787 712 712 667 672 528 528 147 343 16 16 nan nan nan nan nan nan nan nan nan nan nan nan nan nan nan nan nan nan nan nan nan nan nan nan nan nan nan nan nan 1 0 0 0 0 0 0 1 0 0 0 0 1 1 0 0 1
316 374 374 434 495 495 664 960 993 993 1029 1028 811 787 787 763 791 403 403 47 65 nan nan nan nan nan nan nan nan nan nan nan nan nan nan nan nan nan nan nan nan nan nan nan nan nan nan nan nan nan nan nan 0 nan nan 0 0 0 0 1 0 0 0 0 nan nan 0 0 0
392 402 402 435 520 520 717 1126 1314 1314 1355 1202 926 809 809 725 773 365 365 35 nan nan nan nan nan nan nan nan nan nan nan nan 0 0 0 0 nan nan nan 0 nan nan nan nan nan nan nan nan nan nan nan nan 0 nan nan nan 0 1 1 0 0 0 0 0 0 0 0 1 9
368 448 448 562 623 623 739 1012 1264 1264 1419 1120 891 771 771 950 705 10 10 nan nan nan nan nan nan nan nan nan 0 0 0 0 0 0 0 0 0 nan nan nan nan nan nan nan nan nan nan nan nan nan nan nan nan nan nan 0 1 1 1 1 0 0 0 0 0 0 0 1 12
571 659 659 692 698 698 730 911 1009 1009 1010 854 791 753 753 56 nan nan nan nan nan nan nan nan nan 0 0 nan nan nan 0 0 0 nan nan nan 0 1 1 nan nan nan nan nan nan nan nan nan nan nan nan nan 0 0 0 0 1 1 1 1 1 1 1 0 0 0 0 0 1